Weather History for Tacoma, WA

Change the Weather History Date:

Monday, March 26, 2012

  Actual Average Record
Temperature  
Mean Temperature 48 °F -  
Max Temperature 57 °F 52 °F 73 °F (1969)
Min Temperature 41 °F 34 °F 25 °F (1995)
Degree Days  
Heating Degree Days 16    
Moisture  
Dew Point 41 °F    
Average Humidity 87    
Maximum Humidity 100    
Minimum Humidity 37    
Precipitation  
Precipitation 11.38 in - - ()
Sea Level Pressure  
Sea Level Pressure 29.80 in    
Wind  
Wind Speed 8 mph (SSW)    
Max Wind Speed 18 mph    
Max Gust Speed 18 mph    
Visibility 10 miles    
Events Rain    
Averages and records for this station are not official NWS values.
T = Trace of Precipitation, MM = Missing Value Source: NWS Daily Summary

Daily Weather History Graph

Daily Weather History Graph

Search for Another Location

Airport:

Trip Planner

Search our weather history database for the weather conditions in past years. The results will help you decide how hot, cold, wet, or windy it might be!

Date:

Astronomy

Mar. 26, 2012 Rise Set
Actual Time 6:59 AM PDT 7:31 PM PDT
Civil Twilight 6:29 AM PDT 8:02 PM PDT
Nautical Twilight 5:52 AM PDT 8:38 PM PDT
Astronomical Twilight 5:15 AM PDT 9:16 PM PDT
Moon 8:34 AM PDT (3/26) No Moon Set
Length of Visible Light 13h 33m
Length of Day
12h 32m
Waxing Crescent, 15% of the Moon is Illuminated
Mar 26
Waxing Crescent
Mar 30
First Quarter
Apr 6
Full
Apr 13
Last Quarter
Apr 21
New

Hourly Weather History & Observations

Time (PDT) Temp. Windchill Dew Point Humidity Pressure Visibility Wind Dir Wind Speed Gust Speed Precip Events Conditions
12:19 AM 46.4 °F 44.3 °F 42.8 °F 87% 29.78 in 9.0 mi WSW 4.6 mph - N/A Rain Light Rain
12:21 AM 46.4 °F 44.3 °F 42.8 °F 87% 29.78 in 9.0 mi WSW 4.6 mph - N/A Rain Light Rain
12:22 AM 46.4 °F 44.3 °F 42.8 °F 87% 29.78 in 9.0 mi WSW 4.6 mph - N/A Rain Light Rain
12:36 AM 46.4 °F 44.3 °F 44.6 °F 93% 29.78 in 10.0 mi SSW 4.6 mph - N/A Rain Light Rain
12:41 AM 46.4 °F 42.9 °F 44.6 °F 93% 29.78 in 10.0 mi SSW 6.9 mph - N/A Rain Light Rain
12:50 AM 46.4 °F 41.9 °F 44.6 °F 93% 29.78 in 9.0 mi SSW 9.2 mph - N/A Rain Light Rain
12:52 AM 46.4 °F 41.9 °F 44.6 °F 93% 29.78 in 9.0 mi SSW 9.2 mph - N/A Rain Light Rain
12:55 AM 45.7 °F 41.0 °F 45.1 °F 98% 29.78 in 10.0 mi SW 9.2 mph - 0.38 in Rain Light Rain
12:57 AM 46.4 °F 41.9 °F 44.6 °F 93% 29.78 in 10.0 mi SW 9.2 mph - N/A Rain Light Rain
1:00 AM 46.4 °F 41.9 °F 44.6 °F 93% 29.78 in 10.0 mi SW 9.2 mph - N/A Rain Light Rain
1:28 AM 44.6 °F 39.7 °F 44.6 °F 100% 29.79 in 10.0 mi SSW 9.2 mph - N/A Rain Light Rain
1:33 AM 44.6 °F 39.7 °F 44.6 °F 100% 29.79 in 10.0 mi SSW 9.2 mph - N/A Rain Light Rain
1:50 AM 44.6 °F 41.4 °F 44.6 °F 100% 29.79 in 10.0 mi SSW 5.8 mph - N/A   Light Drizzle
1:53 AM 44.6 °F 39.7 °F 44.6 °F 100% 29.79 in 10.0 mi SSW 9.2 mph - N/A   Overcast
1:55 AM 45.0 °F 40.1 °F 44.4 °F 98% 29.79 in 10.0 mi SSW 9.2 mph - -   Overcast
1:58 AM 44.6 °F 38.8 °F 44.6 °F 100% 29.79 in 10.0 mi SSW 11.5 mph - N/A Rain Light Rain
2:17 AM 44.6 °F 39.7 °F 44.6 °F 100% 29.79 in 10.0 mi SW 9.2 mph - N/A Rain Light Rain
2:22 AM 44.6 °F 39.2 °F 44.6 °F 100% 29.79 in 10.0 mi SSW 10.4 mph - N/A Rain Light Rain
2:25 AM 44.6 °F 39.7 °F 44.6 °F 100% 29.79 in 10.0 mi SSW 9.2 mph - N/A   Overcast
2:26 AM 44.6 °F 39.7 °F 44.6 °F 100% 29.79 in 10.0 mi SSW 9.2 mph - N/A Rain Light Rain
2:55 AM 44.1 °F 39.5 °F 43.3 °F 97% 29.78 in 10.0 mi SSW 8.1 mph - - Rain Light Rain
2:59 AM 44.6 °F 39.7 °F 42.8 °F 93% 29.79 in 10.0 mi SSW 9.2 mph - N/A   Overcast
3:04 AM 44.6 °F 39.2 °F 42.8 °F 93% 29.79 in 10.0 mi SSW 10.4 mph - N/A Rain Light Rain
3:35 AM 44.6 °F 39.7 °F 42.8 °F 93% 29.80 in 10.0 mi SSW 9.2 mph - N/A   Overcast
3:36 AM 44.6 °F 39.7 °F 42.8 °F 93% 29.80 in 10.0 mi South 9.2 mph - N/A   Overcast
3:46 AM 42.8 °F 37.0 °F 42.8 °F 100% 29.80 in 10.0 mi South 10.4 mph - N/A   Overcast
3:50 AM 42.8 °F 37.5 °F 42.8 °F 100% 29.80 in 10.0 mi South 9.2 mph - N/A   Overcast
3:51 AM 42.8 °F 37.5 °F 42.8 °F 100% 29.80 in 10.0 mi South 9.2 mph - N/A   Overcast
3:53 AM 42.8 °F 38.0 °F 42.8 °F 100% 29.80 in 10.0 mi South 8.1 mph - N/A   Overcast
3:55 AM 43.3 °F 38.1 °F 42.8 °F 98% 29.80 in 10.0 mi SSW 9.2 mph - -   Overcast
3:56 AM 42.8 °F 37.5 °F 42.8 °F 100% 29.80 in 10.0 mi SSW 9.2 mph - N/A   Overcast
3:59 AM 42.8 °F 37.5 °F 42.8 °F 100% 29.80 in 10.0 mi SSW 9.2 mph - N/A   Overcast
4:07 AM 42.8 °F 37.0 °F 42.8 °F 100% 29.80 in 10.0 mi South 10.4 mph - N/A   Overcast
4:13 AM 42.8 °F 38.0 °F 42.8 °F 100% 29.80 in 10.0 mi SSW 8.1 mph - N/A Rain Light Rain
4:22 AM 42.8 °F 37.0 °F 42.8 °F 100% 29.79 in 10.0 mi SSW 10.4 mph - N/A Rain Light Rain
4:27 AM 42.8 °F 37.5 °F 42.8 °F 100% 29.79 in 10.0 mi SSW 9.2 mph - N/A   Overcast
4:42 AM 42.8 °F 37.5 °F 42.8 °F 100% 29.79 in 10.0 mi SSW 9.2 mph - N/A   Overcast
4:55 AM 43.0 °F 38.8 °F 41.7 °F 95% 29.79 in 10.0 mi SSW 6.9 mph - -   Overcast
5:55 AM 42.6 °F 39.0 °F 41.4 °F 95% 29.80 in 10.0 mi SSW 5.8 mph - -   Overcast
6:08 AM 42.8 °F 37.5 °F 41.0 °F 93% 29.81 in 10.0 mi South 9.2 mph - N/A   Overcast
6:24 AM 42.8 °F 37.5 °F 41.0 °F 93% 29.81 in 10.0 mi South 9.2 mph - N/A   Overcast
6:34 AM 42.8 °F 38.0 °F 41.0 °F 93% 29.81 in 10.0 mi South 8.1 mph - N/A   Overcast
6:53 AM 42.8 °F 37.5 °F 41.0 °F 93% 29.81 in 10.0 mi South 9.2 mph - N/A   Overcast
6:55 AM 42.4 °F 37.5 °F 41.0 °F 95% 29.81 in 10.0 mi South 8.1 mph - - Rain Light Rain
7:04 AM 42.8 °F 39.3 °F 41.0 °F 93% 29.82 in 10.0 mi South 5.8 mph - N/A   Overcast
7:30 AM 42.8 °F 38.6 °F 41.0 °F 93% 29.82 in 10.0 mi South 6.9 mph - N/A   Overcast
7:55 AM 42.4 °F 38.1 °F 40.8 °F 94% 29.83 in 10.0 mi South 6.9 mph - -   Overcast
8:55 AM 43.2 °F 37.9 °F 40.1 °F 89% 29.83 in 10.0 mi SSW 9.2 mph - 11.00 in   Overcast
9:55 AM 44.4 °F 39.5 °F 39.9 °F 84% 29.83 in 10.0 mi SSW 9.2 mph - N/A   Overcast
10:55 AM 45.7 °F 40.2 °F 39.2 °F 78% 29.85 in 10.0 mi South 11.5 mph - N/A   Overcast
11:55 AM 48.6 °F - 38.7 °F 69% 29.85 in 10.0 mi SSW 11.5 mph - N/A   Overcast
12:30 PM 48.2 °F - 37.4 °F 66% 29.85 in 10.0 mi South 16.1 mph - N/A   Overcast
12:32 PM 48.2 °F - 37.4 °F 66% 29.85 in 10.0 mi SSW 16.1 mph - N/A   Overcast
12:33 PM 48.2 °F - 37.4 °F 66% 29.85 in 10.0 mi SSW 18.4 mph - N/A   Overcast
12:55 PM 48.6 °F - 38.3 °F 68% 29.85 in 10.0 mi SSW 17.3 mph - N/A   Overcast
1:55 PM 50.7 °F - 36.5 °F 58% 29.83 in 10.0 mi South 10.4 mph - N/A   Overcast
2:55 PM 53.6 °F - 36.3 °F 52% 29.82 in 10.0 mi South 10.4 mph - N/A   Scattered Clouds
3:55 PM 54.7 °F - 32.2 °F 42% 29.81 in 10.0 mi SW 6.9 mph - N/A   Scattered Clouds
4:55 PM 56.3 °F - 30.0 °F 37% 29.80 in 10.0 mi SW 11.5 mph 18.4 mph N/A   Clear
5:55 PM 55.2 °F - 31.6 °F 41% 29.79 in 10.0 mi SSE 10.4 mph - N/A   Scattered Clouds
6:55 PM 53.4 °F - 32.5 °F 45% 29.78 in 10.0 mi South 4.6 mph - N/A   Mostly Cloudy
7:55 PM 50.2 °F - 32.9 °F 52% 29.77 in 10.0 mi Calm Calm - N/A   Clear
8:55 PM 46.9 °F - 36.7 °F 68% 29.77 in 10.0 mi Calm Calm - N/A   Overcast
9:55 PM 44.1 °F - 37.8 °F 78% 29.76 in 10.0 mi Calm Calm - N/A   Clear
10:55 PM 41.0 °F 39.0 °F 37.0 °F 86% 29.74 in 10.0 mi East 3.5 mph - N/A   Partly Cloudy
11:55 PM 41.7 °F - 37.6 °F 85% 29.74 in 10.0 mi Calm Calm - N/A   Mostly Cloudy